Weather History for KTOP - December, 2013

Change the Weather History Date:

Sunday, December 15, 2013

  Actual Average Record
Temperature  
Mean Temperature 35 °F 32 °F  
Max Temperature 54 °F 41 °F 70 °F (2002)
Min Temperature 16 °F 22 °F -15 °F (1989)
Degree Days  
Heating Degree Days 30 33  
Month to date heating degree days 563 469  
Since 1 July heating degree days 1559 1463  
Cooling Degree Days 0 0  
Month to date cooling degree days 0 0  
Year to date cooling degree days 1586 1422  
Moisture  
Dew Point 22 °F    
Average Humidity 62    
Maximum Humidity 88    
Minimum Humidity 35    
Precipitation  
Precipitation 0.00 in 0.04 in 0.79 in (1940)
Month to date precipitation 0.10 0.75  
Year to date precipitation 33.55 35.86  
Snow  
Snow 0.00 in 0.20 in 5.30 in (1970)
Month to date snowfall 1.0 2.3  
Year to date snowfall 25.2 14.9  
Since 1 July snowfall 1.0 3.6  
Snow Depth 0.00 in    
Sea Level Pressure  
Sea Level Pressure 30.09 in    
Wind  
Wind Speed 4 mph (SW)    
Max Wind Speed 12 mph    
Max Gust Speed 14 mph    
Visibility 8 miles    
Events      
T = Trace of Precipitation, MM = Missing Value Source: NWS Daily Summary

Daily Weather History Graph

Daily Weather History Graph

Search for Another Location

Airport or City:

Trip Planner

Search our weather history database for the weather conditions in past years. The results will help you decide how hot, cold, wet, or windy it might be!

Date:

Astronomy

Dec. 15, 2013 Rise Set
Actual Time 7:34 AM CST 5:01 PM CST
Civil Twilight 7:04 AM CST 5:31 PM CST
Nautical Twilight 6:31 AM CST 6:04 PM CST
Astronomical Twilight 5:58 AM CST 6:37 PM CST
Moon 4:05 PM CST (12/15) 5:52 AM CST (12/15)
Length of Visible Light 10h 26m
Length of Day
9h 26m
Waxing Gibbous, 98% of the Moon is Illuminated
Dec 15
Waxing Gibbous
Dec 17
Full
Dec 25
Last Quarter
Jan 1
New
Jan 7
First Quarter

Hourly Weather History & Observations

Time (CST) Temp. Windchill Dew Point Humidity Pressure Visibility Wind Dir Wind Speed Gust Speed Precip Events Conditions
12:53 AM 17.1 °F 11.7 °F 12.9 °F 84% 30.24 in 4.0 mi SSE 3.5 mph - N/A   Clear
1:53 AM 19.9 °F 14.9 °F 15.1 °F 81% 30.23 in 5.0 mi South 3.5 mph - N/A   Haze
2:53 AM 16.0 °F - 12.0 °F 84% 30.22 in 5.0 mi Calm Calm - N/A   Clear
3:53 AM 19.0 °F 13.9 °F 14.0 °F 81% 30.22 in 6.0 mi SSE 3.5 mph - N/A   Haze
4:53 AM 19.9 °F 13.4 °F 16.0 °F 85% 30.19 in 7.0 mi South 4.6 mph - N/A   Clear
5:53 AM 21.0 °F 13.4 °F 16.0 °F 81% 30.18 in 7.0 mi South 5.8 mph - N/A   Clear
6:53 AM 23.0 °F 13.9 °F 18.0 °F 81% 30.15 in 7.0 mi SSW 8.1 mph - N/A   Partly Cloudy
7:53 AM 24.1 °F 17.0 °F 19.0 °F 81% 30.14 in 5.0 mi SW 5.8 mph - N/A   Haze
8:53 AM 27.0 °F 19.5 °F 21.0 °F 78% 30.14 in 5.0 mi SW 6.9 mph - N/A   Haze
9:53 AM 34.0 °F 29.8 °F 24.1 °F 67% 30.13 in 7.0 mi WSW 4.6 mph - N/A   Clear
10:53 AM 39.9 °F 37.8 °F 26.1 °F 58% 30.12 in 10.0 mi West 3.5 mph - N/A   Clear
11:53 AM 43.0 °F 38.2 °F 27.0 °F 53% 30.10 in 10.0 mi West 8.1 mph - N/A   Clear
12:53 PM 46.9 °F - 27.0 °F 46% 30.07 in 10.0 mi SW 4.6 mph - N/A   Clear
1:53 PM 52.0 °F - 26.1 °F 37% 30.05 in 10.0 mi WSW 9.2 mph - N/A   Clear
2:53 PM 53.1 °F - 26.1 °F 35% 30.04 in 10.0 mi SW 6.9 mph - N/A   Clear
3:53 PM 54.0 °F - 26.1 °F 34% 30.02 in 10.0 mi Calm Calm - N/A   Clear
4:53 PM 50.0 °F - 28.0 °F 43% 30.02 in 10.0 mi Calm Calm - N/A   Mostly Cloudy
5:53 PM 43.0 °F - 27.0 °F 53% 30.02 in 10.0 mi Calm Calm - N/A   Clear
6:53 PM 37.0 °F - 26.1 °F 65% 30.01 in 10.0 mi Calm Calm - N/A   Clear
7:53 PM 36.0 °F - 26.1 °F 67% 30.01 in 10.0 mi Calm Calm - N/A   Clear
8:53 PM 34.0 °F - 25.0 °F 70% 30.01 in 10.0 mi Calm Calm - N/A   Clear
9:53 PM 43.0 °F 40.3 °F 24.1 °F 47% 29.99 in 10.0 mi SW 4.6 mph - N/A   Clear
10:53 PM 32.0 °F 28.7 °F 24.1 °F 73% 30.00 in 9.0 mi WSW 3.5 mph - N/A   Clear
11:53 PM 37.0 °F 33.3 °F 25.0 °F 62% 30.00 in 10.0 mi West 4.6 mph - N/A   Clear